Tracking 32938 objects as of 13-Jan-2026
HD Live streaming from Space Station
objects crossing your sky now

THOR ABLESTAR DEB

Track THOR ABLESTAR DEB now!
10-day predictions


NORAD ID: 350
Int'l Code: 1961-015DQ
Perigee: 729.4 km
Apogee: 918.4 km
Inclination: 66.9 °
Period: 101.2 minutes
Semi major axis: 7194 km
RCS: 0.1129 m2 (medium)
Launch date: June 29, 1961
Source: United States (US)
Launch site: AIR FORCE EASTERN TEST RANGE (AFETR)

Note: This is SATELLITE DEBRIS
Your satellite tracking list
Your tracking list is empty




NASA's NSSDC Master Catalog

Two Line Element Set (TLE):
1 00350U 61015DQ  26013.10365289  .00000189  00000-0  11134-3 0  9998
2 00350  66.9117 267.5342 0131344 266.5673  92.0392 14.22535772340897
Source of the keplerian elements: AFSPC